Satellite: CO-58
Catalog number: 28895
Epoch time:      07186.70002984
Element set:     767
Inclination:      098.1313 deg
RA of node:       083.1950 deg
Eccentricity:    0.0018933
Arg of perigee:   056.9237 deg
Mean anomaly:     303.3780 deg
Mean motion:   14.59565890 rev/day
Decay rate:       1.61e-06 rev/day^2
Epoch rev:            8979
Checksum:              351

Satellite: NCUBE2
Catalog number: 28897
Epoch time:      07186.29295078
Element set:     294
Inclination:      098.1304 deg
RA of node:       082.7512 deg
Eccentricity:    0.0018345
Arg of perigee:   058.8075 deg
Mean anomaly:     301.4917 deg
Mean motion:   14.59728060 rev/day
Decay rate:        9.2e-07 rev/day^2
Epoch rev:            8201
Checksum:              318

Satellite: NMARS
Catalog number: 29662
Epoch time:      07126.39603970
Element set:     263
Inclination:      051.6121 deg
RA of node:       302.3682 deg
Eccentricity:    0.0004459
Arg of perigee:   252.1654 deg
Mean anomaly:     110.7411 deg
Mean motion:   16.47981436 rev/day
Decay rate:   7.031946e-02 rev/day^2
Epoch rev:            2165
Checksum:              289

Satellite: FCAL
Catalog number: 29667
Epoch time:      07186.69753801
Element set:     202
Inclination:      051.6329 deg
RA of node:       357.1721 deg
Eccentricity:    0.0014299
Arg of perigee:   060.6298 deg
Mean anomaly:     299.6133 deg
Mean motion:   15.88823328 rev/day
Decay rate:     1.5893e-04 rev/day^2
Epoch rev:            3094
Checksum:              333

Satellite: FALCON
Catalog number: 30776
Epoch time:      07185.92678199
Element set:    0088
Inclination:      035.4328 deg
RA of node:       105.1204 deg
Eccentricity:    0.0001803
Arg of perigee:   281.9933 deg
Mean anomaly:     078.0581 deg
Mean motion:   15.02729562 rev/day
Decay rate:       1.49e-06 rev/day^2
Epoch rev:           01772
Checksum:              304

Satellite: MAST
Catalog number: 31126
Epoch time:      07185.74514332
Element set:    0074
Inclination:      098.0815 deg
RA of node:       258.2487 deg
Eccentricity:    0.0094416
Arg of perigee:   331.8343 deg
Mean anomaly:     027.7726 deg
Mean motion:   14.53350090 rev/day
Decay rate:       3.92e-06 rev/day^2
Epoch rev:           01140
Checksum:              280

Satellite: CAPE1
Catalog number: 31130
Epoch time:      07186.44570039
Element set:      60
Inclination:      098.0830 deg
RA of node:       258.7396 deg
Eccentricity:    0.0102526
Arg of perigee:   330.1571 deg
Mean anomaly:     029.3798 deg
Mean motion:   14.51863464 rev/day
Decay rate:        7.0e-08 rev/day^2
Epoch rev:            1126
Checksum:              281

/EX





More information about the Keps mailing list